{"data":{"norad_id":89493,"intl_designator":"","name":"UNKNOWN","alt_names":[],"object_type":"UNKNOWN","status":"UNKNOWN","operator":null,"country":null,"launch_date":null,"launch_site_code":null,"launch_vehicle":null,"mission":null,"orbit_class":"UNKNOWN","rcs_meters":null,"size_class":null,"mass_kg":null,"dimensions":null,"purposes":[],"wikipedia_slug":null,"has_3d_model":false,"image_url":null,"decayed_at":null,"tle_current":{"epoch":"2026-09-15T10:38:24.477504Z","epoch_age_seconds":451636,"freshness":"STALE","line1":"1 89493U          26258.44333886  .00001526  00000+0  75051-3 0  9999","line2":"2 89493  99.0125 336.1404 0078560 334.2172  25.5096 14.17592250503135","mean_motion":14.1759225,"eccentricity":0.007856,"inclination_deg":99.0125,"raan_deg":336.1404,"arg_perigee_deg":334.2172,"mean_anomaly_deg":25.5096,"bstar":0.00075051,"rev_number":50313,"period_min":101.58069078044,"perigee_km":776.85245684189,"apogee_km":890.16180946197,"semimajor_km":7211.6441331519,"source":"CELESTRAK","updated_at":"2026-09-20T09:00:32.485993Z"}}}